Time,TemperatureF,DewpointF,PressureIn,WindDirection,WindDirectionDegrees,WindSpeedMPH,WindSpeedGustMPH,Humidity,HourlyPrecipIn,Conditions,Clouds,dailyrainin,SoftwareType,DateUTC
2014-01-09 00:22:00,62.0,59.0,30.28,North,0,0.0,0.0,89,99.99,,,-99.99,,2014-01-09 05:22:00,
2014-01-09 00:43:00,62.0,59.0,30.27,North,0,0.0,0.0,91,99.99,,,-99.99,,2014-01-09 05:43:00,
2014-01-09 00:53:00,62.0,59.0,30.27,North,0,0.0,0.0,91,99.99,,,-99.99,,2014-01-09 05:53:00,
2014-01-09 01:23:00,61.0,60.0,30.26,North,0,0.0,0.0,95,99.99,,,-99.99,,2014-01-09 06:23:00,
2014-01-09 01:52:00,59.0,58.0,30.25,North,0,0.0,0.0,98,99.99,,,-99.99,,2014-01-09 06:52:00,
2014-01-09 02:22:00,59.0,58.0,30.25,North,0,0.0,0.0,97,99.99,,,-99.99,,2014-01-09 07:22:00,
2014-01-09 02:52:00,59.0,58.0,30.23,NE,45,3.0,12.0,98,99.99,,,-99.99,,2014-01-09 07:52:00,
2014-01-09 03:22:00,59.0,58.0,30.24,NE,46,6.0,10.0,98,99.99,,,-99.99,,2014-01-09 08:22:00,
2014-01-09 03:52:00,60.0,60.0,30.24,North,359,1.0,9.0,99,99.99,,,-99.99,,2014-01-09 08:52:00,
2014-01-09 04:22:00,60.0,60.0,30.24,North,359,1.0,10.0,100,99.99,,,-99.99,,2014-01-09 09:22:00,
2014-01-09 04:53:00,59.0,59.0,30.24,NE,46,7.0,10.0,100,99.99,,,-99.99,,2014-01-09 09:53:00,
2014-01-09 05:23:00,59.0,59.0,30.22,NE,45,5.0,9.0,100,99.99,,,-99.99,,2014-01-09 10:23:00,
2014-01-09 05:52:00,59.0,59.0,30.23,NE,51,6.0,9.0,100,99.99,,,-99.99,,2014-01-09 10:52:00,
2014-01-09 06:22:00,59.0,59.0,30.23,NE,39,5.0,8.0,100,99.99,,,-99.99,,2014-01-09 11:22:00,
2014-01-09 06:52:00,59.0,59.0,30.23,NE,53,6.0,10.0,100,99.99,,,-99.99,,2014-01-09 11:52:00,
2014-01-09 07:22:00,59.0,59.0,30.24,NE,51,1.0,11.0,100,99.99,,,-99.99,,2014-01-09 12:22:00,
2014-01-09 07:52:00,60.0,60.0,30.26,North,0,0.0,0.0,100,99.99,,,-99.99,,2014-01-09 12:52:00,
2014-01-09 08:22:00,60.0,60.0,30.26,North,0,0.0,0.0,100,99.99,,,-99.99,,2014-01-09 13:22:00,
2014-01-09 08:52:00,61.0,61.0,30.27,North,0,0.0,0.0,100,99.99,,,-99.99,,2014-01-09 13:52:00,
2014-01-09 09:22:00,63.0,63.0,30.28,ENE,65,0.0,15.0,100,99.99,,,-99.99,,2014-01-09 14:22:00,
2014-01-09 09:52:00,63.0,63.0,30.29,North,0,0.0,0.0,100,99.99,,,-99.99,,2014-01-09 14:52:00,
2014-01-09 10:22:00,63.0,63.0,30.30,North,0,0.0,0.0,100,99.99,,,-99.99,,2014-01-09 15:22:00,
2014-01-09 10:54:00,63.0,63.0,30.28,North,0,0.0,0.0,100,99.99,,,-99.99,,2014-01-09 15:54:00,
2014-01-09 11:23:00,65.0,65.0,30.27,North,0,0.0,0.0,100,99.99,,,-99.99,,2014-01-09 16:23:00,
2014-01-09 13:22:00,69.0,69.0,30.22,ENE,65,5.0,12.0,100,99.99,,,-99.99,,2014-01-09 18:22:00,
2014-01-09 13:37:00,69.0,69.0,30.22,ENE,65,5.0,12.0,100,99.99,,,-99.99,,2014-01-09 18:37:00,
2014-01-09 19:52:00,69.0,69.0,30.21,North,0,0.0,0.0,100,99.99,,,-99.99,,2014-01-10 00:52:00,
2014-01-09 20:11:00,69.0,69.0,30.21,North,0,0.0,0.0,100,99.99,,,-99.99,,2014-01-10 01:11:00,
2014-01-09 20:22:00,69.0,69.0,30.21,North,0,0.0,0.0,100,99.99,,,-99.99,,2014-01-10 01:22:00,
2014-01-09 20:52:00,69.0,69.0,30.22,North,0,0.0,0.0,100,99.99,,,-99.99,,2014-01-10 01:52:00,
2014-01-09 21:22:00,68.0,68.0,30.23,North,0,0.0,0.0,100,99.99,,,-99.99,,2014-01-10 02:22:00,
2014-01-09 21:52:00,69.0,69.0,30.22,North,0,0.0,0.0,100,99.99,,,-99.99,,2014-01-10 02:52:00,
2014-01-09 22:22:00,69.0,69.0,30.23,North,0,0.0,0.0,100,99.99,,,-99.99,,2014-01-10 03:22:00,
2014-01-09 22:54:00,69.0,69.0,30.22,North,0,0.0,0.0,100,99.99,,,-99.99,,2014-01-10 03:54:00,
2014-01-09 23:23:00,69.0,69.0,30.22,North,0,0.0,0.0,100,99.99,,,-99.99,,2014-01-10 04:23:00,
2014-01-09 23:53:00,69.0,69.0,30.22,North,0,0.0,0.0,100,99.99,,,-99.99,,2014-01-10 04:53:00,